[[{"header":{"parameterUnit":"m.s-1","parameterCategory":1,"la1":30.2991,"la2":30.254,"lo1":-89.0895,"lo2":-89.0444,"dy":0.0017,"dx":0.0017,"nx":28,"ny":28,"refTime":"2025-01-12T03:00:00:Z","depth":0,"parameterNumber":2,"parameterNumberName":"U-component_of_WINDS"},"data":[0,0,0,0,0,0,0,0,0,0,0,0,0,0,0,0,0,0,0,0,0,0,0,0,0,0,0,0,0,0,0,0,0,0,0,0,0,0,0,0,0,0,0,0,0,0,0,0,0,0,0,0,0,0,0,0,0,0,-7.4361,-7.4362,0,-7.4514,-7.4516,-7.4518,-7.4392,-7.4387,-7.4382,-7.4377,-7.4535,-7.4544,-7.4553,0,0,0,0,0,0,0,0,0,0,0,0,0,-7.3961,-7.3969,-7.4361,-7.4363,-7.4364,-7.4514,-7.4516,-7.4518,-7.4393,-7.4387,-7.438,-7.4374,-7.4532,-7.4543,-7.4554,0,0,0,0,0,0,0,0,0,0,0,0,0,-7.4126,-7.3971,-7.436,-7.432,-7.4318,-7.4514,-7.4516,-7.4519,-7.4395,-7.4387,-7.4379,-7.4371,-7.4528,-7.4542,-7.4555,-7.4799,0,0,-7.4597,-7.4603,0,0,0,0,0,0,0,0,-7.4117,-7.4141,-7.4324,-7.4323,-7.4321,-7.4426,-7.4433,-7.4613,-7.4397,-7.4366,-7.4377,-7.4367,-7.4505,-7.452,-7.4566,-7.4806,-7.4813,-7.4598,-7.4607,-7.4613,-7.4616,0,0,0,0,0,0,0,-7.4106,-7.4134,-7.4421,-7.4327,-7.4325,-7.4295,-7.431,-7.4466,-7.4478,-7.4368,-7.4359,-7.4379,-7.4503,-7.4554,-7.4569,-7.4815,-7.4598,-7.461,-7.4619,-7.4624,-7.5262,-7.527,0,0,0,0,0,0,-7.4098,-7.4125,-7.4416,-7.4426,-7.4198,-7.4309,-7.4325,-7.44,-7.4476,-7.448,-7.4385,-7.4372,-7.4534,-7.4553,-7.4574,-7.4863,-7.4612,-7.4625,-7.4633,-7.5253,-7.5264,-7.5273,0,0,0,0,0,0,-7.409,-7.4125,-7.441,-7.4273,-7.4307,-7.4324,-7.441,-7.4408,-7.4458,-7.4489,-7.4491,-7.4435,-7.4529,-7.4555,-7.4744,-7.4867,-7.4631,-7.4644,-7.5243,-7.5256,-7.5268,-7.5443,0,0,0,0,0,0,-7.4079,-7.4123,-7.4215,-7.4276,-7.4315,-7.4577,-7.4417,-7.4416,-7.4482,-7.4466,-7.4536,-7.454,-7.4524,-7.4724,-7.4757,-7.4881,-7.4655,-7.5232,-7.5249,-7.5264,-7.5426,-7.5461,-7.549,0,0,0,0,0,-7.4065,-7.4259,-7.4221,-7.4256,-7.443,-7.4584,-7.4606,-7.4584,-7.4492,-7.4585,-7.4606,-7.4538,-7.4849,-7.4744,-7.4781,-7.4911,-7.5224,-7.5244,-7.5263,-7.5412,-7.5454,-7.5489,0,0,0,0,0,0,-7.4211,-7.4266,-7.4224,-7.4443,-7.451,-7.4563,-7.4678,-7.4629,-7.4723,-7.4705,-7.4673,-7.469,-7.4888,-7.4919,-7.4801,-7.515,-7.5022,-7.505,-7.5122,-7.5162,-7.5194,-7.5181,-7.4666,0,0,0,0,0,-7.4269,-7.4389,-7.443,-7.4619,-7.4655,-7.4662,-7.4728,-7.4705,-7.4773,-7.4801,-7.4835,-7.4904,-7.5017,-7.5092,-7.5198,-7.5432,-7.5444,-7.5539,-7.5571,-7.5597,-7.562,-7.5745,-7.5788,-7.5338,-7.5337,-7.5337,0,0,-7.4389,-7.4434,-7.4511,-7.465,-7.4699,-7.4824,-7.4686,-7.4824,-7.4917,-7.4822,-7.5001,-7.503,-7.5104,-7.5317,-7.5412,-7.5348,-7.5748,-7.5622,-7.5642,-7.5652,-7.577,-7.5813,-7.585,-7.5351,-7.5348,-7.5346,0,0,-7.4671,-7.4718,-7.488,-7.4932,-7.5009,-7.5012,-7.5052,-7.5113,-7.5128,-7.5308,-7.5239,-7.5349,-7.5545,-7.5601,-7.5655,-7.5962,-7.5902,-7.5997,-7.6162,-7.6284,-7.6319,-7.6351,-7.6458,-7.6497,-7.6021,-7.6022,-7.6022,0,-7.481,-7.4995,-7.4969,-7.5113,-7.5175,-7.5097,-7.526,-7.5313,-7.5421,-7.5466,-7.5394,-7.5638,-7.5683,-7.5906,-7.5981,-7.6029,-7.6072,-7.5987,-7.6317,-7.6348,-7.6376,-7.6478,-7.6519,-7.6033,-7.6031,-7.603,-7.6029,0,-7.5162,-7.5292,-7.5414,-7.5519,-7.5596,-7.575,-7.5747,-7.5829,-7.5801,-7.5812,-7.5997,-7.6049,-7.6163,-7.6216,-7.6189,-7.6436,-7.6394,-7.6321,-7.619,-7.643,-7.6526,-7.6565,-7.6048,-7.6044,-7.6041,-7.6038,0,0,-7.5536,-7.5627,-7.5672,-7.5719,-7.5799,-7.5899,-7.605,-7.6162,-7.6231,-7.631,-7.6434,-7.6603,-7.6535,-7.6597,-7.6577,-7.6685,-7.6922,-7.6597,-7.6599,-7.6654,-7.7196,-7.7249,-7.7294,-7.6886,-7.6893,-7.6899,-7.7189,0,-7.5819,-7.6079,-7.6062,-7.6307,-7.6426,-7.6355,-7.6486,-7.6549,-7.6565,-7.6669,-7.6687,-7.6806,-7.6709,-7.6745,-7.6849,-7.6871,-7.703,-7.6851,-7.7,-7.7005,-7.6979,-7.7344,-7.74,-7.7671,-7.7226,-7.7232,-7.7237,0,-7.6183,-7.6274,-7.6531,-7.6593,-7.6643,-7.6761,-7.6862,-7.6963,-7.7034,-7.7038,-7.7109,-7.7071,-7.7224,-7.7093,-7.7301,-7.718,-7.724,-7.7261,-7.7271,-7.7281,-7.7133,-7.7361,-7.7757,-7.7797,-7.7296,-7.7291,-7.7287,0,-7.6427,-7.6614,-7.6791,-7.6834,-7.6912,-7.6997,-7.7033,-7.7097,-7.7166,-7.7256,-7.73,-7.7407,-7.7465,-7.7549,-7.7542,-7.7447,-7.7754,-7.7622,-7.776,-7.776,-7.7824,-7.782,-7.8232,-7.787,-7.7869,-7.7869,-7.7868,0,-7.6743,-7.6902,-7.6902,-7.7011,-7.7187,-7.7167,-7.7343,-7.737,-7.7428,-7.7541,-7.7488,-7.7596,-7.7581,-7.769,-7.7686,-7.7858,-7.7886,-7.7893,-7.7889,-7.7895,-7.7894,-7.7932,-7.7911,-7.7879,-7.7877,-7.7875,-7.7873,0,-7.7043,-7.7049,-7.7237,-7.7297,-7.7316,-7.7444,-7.7494,-7.7598,-7.761,-7.7755,-7.7787,-7.7807,-7.7932,-7.7934,-7.8078,-7.8075,-7.8286,-7.8262,-7.8261,-7.8255,-7.8392,-7.8378,-7.884,-7.8899,-7.8502,-7.8506,-7.8509,0,-7.7242,-7.7362,-7.7436,-7.7508,-7.7549,-7.7666,-7.7737,-7.7723,-7.7798,-7.789,-7.7983,-7.8103,-7.8197,-7.8401,-7.8428,-7.8538,-7.8515,-7.867,-7.853,-7.8533,-7.8514,-7.8505,-7.8516,-7.8695,-7.8699,-7.8703,-7.8706,0,-7.7593,-7.7591,-7.7694,-7.78,-7.7885,-7.7968,-7.8044,-7.8106,-7.8101,-7.8189,-7.8316,-7.839,-7.8537,-7.8656,-7.8763,-7.8801,-7.8753,-7.8751,-7.8787,-7.8793,-7.8786,-7.8789,-7.8331,-7.8739,-7.8735,-7.8733,-7.8731,-7.873,-7.7846,-7.795,-7.8018,-7.8135,-7.8192,-7.8264,-7.8364,-7.839,-7.8496,-7.8614,-7.86,-7.8742,-7.8812,-7.895,-7.8998,-7.9108,-7.9054,-7.9109,-7.9122,-7.9135,-7.9148,-7.8772,-7.9128,-7.9127,-7.9126,-7.9126,-7.9125,0,-7.8192,-7.8233,-7.8342,-7.845,-7.8542,-7.8491,-7.8574,-7.8654,-7.8779,-7.8849,-7.8943,-7.909,-7.9207,-7.9245,-7.9358,-7.9439,-7.942,-7.9469,-7.9461,-7.947,-7.9191,-7.9146,-7.9482,-7.9482,-7.9482,-7.9482,-7.9482,-7.9482,-7.8383,-7.8555,-7.8562,-7.8763,-7.8803,-7.894,-7.8992,-7.9059,-7.9114,-7.928,-7.9377,-7.9401,-7.9458,-7.9575,-7.968,-7.9688,-7.9731,-7.9789,-7.9788,-7.9526,-7.949,-7.9455,-7.9413,-7.9799,-7.98,-8.0057,-8.0059,-8.0061]},{"header":{"parameterUnit":"m.s-1","parameterCategory":1,"la1":30.2991,"la2":30.254,"lo1":-89.0895,"lo2":-89.0444,"dy":0.0017,"dx":0.0017,"nx":28,"ny":28,"refTime":"2025-01-12T03:00:00:Z","depth":0,"parameterNumber":3,"parameterNumberName":"V-component_of_WINDS"},"data":[0,0,0,0,0,0,0,0,0,0,0,0,0,0,0,0,0,0,0,0,0,0,0,0,0,0,0,0,0,0,0,0,0,0,0,0,0,0,0,0,0,0,0,0,0,0,0,0,0,0,0,0,0,0,0,0,0,0,-0.2985,-0.2984,0,-0.2889,-0.2888,-0.2887,-0.2865,-0.2866,-0.2867,-0.2867,-0.2767,-0.2764,-0.2761,0,0,0,0,0,0,0,0,0,0,0,0,0,-0.3146,-0.3143,-0.2985,-0.2984,-0.2983,-0.2889,-0.2888,-0.2887,-0.2865,-0.2866,-0.2867,-0.2868,-0.2768,-0.2764,-0.276,0,0,0,0,0,0,0,0,0,0,0,0,0,-0.3066,-0.3142,-0.2985,-0.2961,-0.2958,-0.289,-0.2888,-0.2886,-0.2865,-0.2866,-0.2867,-0.2868,-0.2769,-0.2765,-0.276,-0.2709,0,0,-0.2745,-0.2742,0,0,0,0,0,0,0,0,-0.307,-0.306,-0.2966,-0.2962,-0.2959,-0.289,-0.2908,-0.2827,-0.2865,-0.29,-0.2867,-0.2869,-0.2807,-0.2799,-0.2779,-0.2704,-0.27,-0.2744,-0.2741,-0.2739,-0.2738,0,0,0,0,0,0,0,-0.3076,-0.3064,-0.2947,-0.2964,-0.296,-0.2953,-0.2943,-0.2892,-0.2849,-0.2897,-0.2895,-0.2884,-0.2805,-0.2784,-0.2776,-0.2698,-0.2744,-0.274,-0.2737,-0.2735,-0.2573,-0.2572,0,0,0,0,0,0,-0.3086,-0.3068,-0.295,-0.2944,-0.3018,-0.295,-0.2938,-0.2911,-0.2849,-0.2841,-0.2884,-0.2884,-0.2792,-0.2782,-0.2773,-0.2706,-0.2739,-0.2734,-0.2732,-0.2574,-0.2573,-0.2571,0,0,0,0,0,0,-0.309,-0.3076,-0.2954,-0.3006,-0.299,-0.2946,-0.2916,-0.2909,-0.2887,-0.2839,-0.2831,-0.287,-0.2792,-0.278,-0.2724,-0.2703,-0.2732,-0.2728,-0.2576,-0.2574,-0.2572,-0.2575,0,0,0,0,0,0,-0.3094,-0.3077,-0.3058,-0.3006,-0.2987,-0.2908,-0.2914,-0.2906,-0.2879,-0.2878,-0.2824,-0.2816,-0.2792,-0.2732,-0.2719,-0.2696,-0.2724,-0.2578,-0.2575,-0.2573,-0.2576,-0.2573,-0.257,0,0,0,0,0,-0.31,-0.3063,-0.3057,-0.3043,-0.2963,-0.2907,-0.2896,-0.287,-0.2877,-0.2857,-0.2826,-0.2818,-0.2707,-0.2726,-0.2712,-0.2687,-0.2579,-0.2576,-0.2573,-0.2578,-0.2574,-0.2571,0,0,0,0,0,0,-0.3114,-0.3056,-0.3049,-0.2994,-0.2955,-0.2903,-0.2877,-0.2867,-0.2825,-0.2826,-0.2795,-0.2783,-0.2728,-0.2703,-0.2724,-0.2633,-0.2643,-0.2637,-0.2652,-0.2648,-0.2645,-0.2651,-0.272,0,0,0,0,0,-0.3111,-0.3071,-0.3022,-0.2978,-0.2959,-0.2922,-0.2896,-0.2879,-0.2838,-0.2822,-0.2787,-0.2746,-0.2702,-0.2674,-0.2631,-0.2573,-0.2559,-0.2549,-0.2546,-0.2544,-0.2538,-0.2503,-0.2497,-0.2562,-0.2562,-0.2562,0,0,-0.3104,-0.3067,-0.3044,-0.298,-0.2948,-0.2907,-0.2908,-0.2865,-0.2833,-0.2815,-0.276,-0.2733,-0.2685,-0.2627,-0.26,-0.2604,-0.2518,-0.254,-0.2539,-0.2534,-0.2499,-0.2493,-0.2488,-0.256,-0.256,-0.256,0,0,-0.3068,-0.3038,-0.2997,-0.2964,-0.2916,-0.2891,-0.2881,-0.283,-0.2811,-0.2756,-0.2741,-0.2702,-0.2628,-0.2593,-0.2566,-0.2516,-0.2506,-0.2503,-0.2487,-0.2453,-0.2448,-0.2443,-0.2423,-0.2416,-0.2499,-0.2499,-0.2499,0,-0.3065,-0.3003,-0.2977,-0.2933,-0.2904,-0.2886,-0.2843,-0.2813,-0.2753,-0.2733,-0.2738,-0.2643,-0.261,-0.2543,-0.253,-0.251,-0.2496,-0.2509,-0.2451,-0.2446,-0.2441,-0.2421,-0.2414,-0.2498,-0.2498,-0.2498,-0.2498,0,-0.3,-0.2956,-0.2929,-0.2871,-0.2839,-0.2796,-0.2762,-0.2733,-0.2718,-0.2692,-0.2634,-0.2594,-0.2541,-0.2524,-0.251,-0.2454,-0.2458,-0.2458,-0.2467,-0.2435,-0.2416,-0.2408,-0.2498,-0.2498,-0.2498,-0.2498,0,0,-0.2971,-0.2898,-0.2888,-0.2861,-0.2806,-0.2771,-0.2726,-0.2675,-0.2649,-0.2608,-0.2568,-0.2505,-0.2504,-0.2473,-0.2454,-0.2425,-0.2384,-0.2428,-0.2426,-0.2419,-0.2317,-0.2316,-0.2308,-0.2378,-0.2377,-0.2375,-0.2321,0,-0.2927,-0.2847,-0.2821,-0.2754,-0.2712,-0.2693,-0.2654,-0.2615,-0.2589,-0.2549,-0.252,-0.2474,-0.2477,-0.2458,-0.2428,-0.2396,-0.2363,-0.24,-0.2338,-0.2337,-0.2349,-0.2299,-0.2298,-0.2248,-0.2313,-0.2312,-0.2311,0,-0.2866,-0.2823,-0.2752,-0.2699,-0.2681,-0.2646,-0.2595,-0.2558,-0.2513,-0.2495,-0.246,-0.2444,-0.2394,-0.2407,-0.2337,-0.2363,-0.2336,-0.2316,-0.2313,-0.2305,-0.2321,-0.2287,-0.2232,-0.2224,-0.2299,-0.23,-0.2301,0,-0.2848,-0.2774,-0.272,-0.2698,-0.2636,-0.2612,-0.2585,-0.2541,-0.2511,-0.2466,-0.2446,-0.2397,-0.2369,-0.2331,-0.23,-0.2313,-0.2232,-0.2243,-0.2214,-0.2215,-0.2197,-0.2198,-0.2135,-0.2183,-0.2184,-0.2184,-0.2184,0,-0.2801,-0.2757,-0.2711,-0.2678,-0.2628,-0.2598,-0.2549,-0.2521,-0.2481,-0.2441,-0.2423,-0.2385,-0.2349,-0.2306,-0.2282,-0.2226,-0.2214,-0.2197,-0.2191,-0.2198,-0.2199,-0.2178,-0.218,-0.2182,-0.2182,-0.2182,-0.2183,0,-0.2773,-0.2741,-0.2681,-0.2628,-0.2613,-0.2578,-0.2531,-0.2498,-0.2471,-0.242,-0.2406,-0.2364,-0.2312,-0.2278,-0.2213,-0.2197,-0.2135,-0.213,-0.215,-0.2146,-0.2118,-0.2121,-0.2038,-0.2024,-0.2084,-0.2084,-0.2083,0,-0.2744,-0.271,-0.2652,-0.2624,-0.2597,-0.2553,-0.2522,-0.249,-0.2459,-0.2403,-0.2376,-0.2323,-0.2279,-0.2197,-0.2159,-0.2108,-0.2101,-0.2076,-0.2094,-0.21,-0.2098,-0.2099,-0.2094,-0.2072,-0.2072,-0.2072,-0.2071,0,-0.2695,-0.268,-0.2637,-0.2587,-0.255,-0.251,-0.2469,-0.2447,-0.2408,-0.2373,-0.232,-0.2286,-0.2218,-0.2165,-0.2111,-0.2081,-0.2069,-0.2066,-0.2056,-0.2061,-0.2073,-0.2064,-0.214,-0.2068,-0.2068,-0.2068,-0.2069,-0.2069,-0.2663,-0.2631,-0.2585,-0.2536,-0.2502,-0.2464,-0.2429,-0.2397,-0.2353,-0.2295,-0.228,-0.2224,-0.2177,-0.2102,-0.2072,-0.2027,-0.2029,-0.2016,-0.2012,-0.2008,-0.2007,-0.2082,-0.2017,-0.2017,-0.2017,-0.2017,-0.2017,0,-0.2611,-0.258,-0.2536,-0.2479,-0.244,-0.2433,-0.2387,-0.2354,-0.2305,-0.2263,-0.222,-0.2158,-0.2106,-0.2064,-0.201,-0.1981,-0.1974,-0.1968,-0.1969,-0.1961,-0.2009,-0.2021,-0.1975,-0.1975,-0.1975,-0.1975,-0.1975,-0.1975,-0.2579,-0.2523,-0.2503,-0.2429,-0.2398,-0.2343,-0.2317,-0.2281,-0.2247,-0.2178,-0.2135,-0.2108,-0.2065,-0.2008,-0.1959,-0.1948,-0.1928,-0.1922,-0.191,-0.1954,-0.1959,-0.1963,-0.1975,-0.1919,-0.1919,-0.1866,-0.1865,-0.1865]}]]